Time,TemperatureF,DewpointF,PressureIn,WindDirection,WindDirectionDegrees,WindSpeedMPH,WindSpeedGustMPH,Humidity,HourlyPrecipIn,Conditions,Clouds,dailyrainin,SoftwareType,DateUTC
2017-05-28 00:04:00,67.1,63.4,29.85,SSW,204,1.0,5.0,88,0.00,,---,0.09,VWS V15.00,2017-05-28 04:04:00,
2017-05-28 00:09:00,66.9,63.2,29.85,WSW,240,2.0,4.0,88,0.00,,---,0.00,VWS V15.00,2017-05-28 04:09:00,
2017-05-28 00:14:00,66.8,62.8,29.85,WSW,249,1.0,4.0,87,0.00,,---,0.00,VWS V15.00,2017-05-28 04:14:00,
2017-05-28 00:19:00,66.7,63.0,29.85,SW,220,2.0,4.0,88,0.00,,---,0.00,VWS V15.00,2017-05-28 04:19:00,
2017-05-28 00:24:00,66.6,62.9,29.85,WSW,245,2.0,4.0,88,0.00,,---,0.00,VWS V15.00,2017-05-28 04:24:00,
2017-05-28 00:29:00,66.4,63.1,29.85,SW,229,1.0,4.0,89,0.00,,---,0.00,VWS V15.00,2017-05-28 04:29:00,
2017-05-28 00:34:00,66.1,62.8,29.85,SW,235,1.0,4.0,89,0.00,,---,0.00,VWS V15.00,2017-05-28 04:34:00,
2017-05-28 00:39:00,66.0,62.7,29.85,SW,235,0.0,2.0,89,0.00,,---,0.00,VWS V15.00,2017-05-28 04:39:00,
2017-05-28 00:44:00,65.9,62.9,29.85,South,187,0.0,2.0,90,0.00,,---,0.00,VWS V15.00,2017-05-28 04:44:00,
2017-05-28 00:49:00,65.8,62.8,29.85,South,187,0.0,2.0,90,0.00,,---,0.00,VWS V15.00,2017-05-28 04:49:00,
2017-05-28 00:54:00,65.7,63.0,29.84,South,187,0.0,2.0,91,0.00,,---,0.00,VWS V15.00,2017-05-28 04:54:00,
2017-05-28 00:59:00,65.5,62.8,29.84,South,187,0.0,2.0,91,0.00,,---,0.00,VWS V15.00,2017-05-28 04:59:00,
2017-05-28 01:04:00,65.3,62.6,29.83,South,187,0.0,2.0,91,0.00,,---,0.00,VWS V15.00,2017-05-28 05:04:00,
2017-05-28 01:09:00,65.2,62.5,29.83,South,187,0.0,0.0,91,0.00,,---,0.00,VWS V15.00,2017-05-28 05:09:00,
2017-05-28 01:14:00,65.1,62.7,29.84,South,187,0.0,0.0,92,0.00,,---,0.00,VWS V15.00,2017-05-28 05:14:00,
2017-05-28 01:19:00,65.2,62.8,29.84,WSW,250,0.0,2.0,92,0.00,,---,0.00,VWS V15.00,2017-05-28 05:19:00,
2017-05-28 01:24:00,65.2,62.8,29.83,WSW,249,0.0,2.0,92,0.00,,---,0.00,VWS V15.00,2017-05-28 05:24:00,
2017-05-28 01:29:00,65.2,62.8,29.83,WSW,249,0.0,2.0,92,0.00,,---,0.00,VWS V15.00,2017-05-28 05:29:00,
2017-05-28 01:34:00,65.2,62.8,29.83,WSW,249,0.0,2.0,92,0.00,,---,0.00,VWS V15.00,2017-05-28 05:34:00,
2017-05-28 01:39:00,65.2,62.8,29.83,WSW,249,0.0,0.0,92,0.00,,---,0.00,VWS V15.00,2017-05-28 05:39:00,
2017-05-28 01:44:00,65.2,62.8,29.82,WSW,249,0.0,0.0,92,0.00,,---,0.00,VWS V15.00,2017-05-28 05:44:00,
2017-05-28 01:49:00,65.3,62.6,29.82,WSW,249,0.0,0.0,91,0.00,,---,0.00,VWS V15.00,2017-05-28 05:49:00,
2017-05-28 01:54:00,65.4,63.0,29.82,WSW,249,0.0,0.0,92,0.00,,---,0.00,VWS V15.00,2017-05-28 05:54:00,
2017-05-28 01:59:00,65.4,63.0,29.82,WSW,249,0.0,0.0,92,0.00,,---,0.00,VWS V15.00,2017-05-28 05:59:00,
2017-05-28 02:04:00,65.4,62.7,29.82,WSW,249,0.0,0.0,91,0.00,,---,0.00,VWS V15.00,2017-05-28 06:04:00,
2017-05-28 02:09:00,65.4,62.7,29.82,WSW,249,0.0,0.0,91,0.00,,---,0.00,VWS V15.00,2017-05-28 06:09:00,
2017-05-28 02:14:00,65.4,62.7,29.82,WSW,249,0.0,0.0,91,0.00,,---,0.00,VWS V15.00,2017-05-28 06:14:00,
2017-05-28 02:19:00,65.4,62.7,29.82,WSW,249,0.0,0.0,91,0.00,,---,0.00,VWS V15.00,2017-05-28 06:19:00,
2017-05-28 02:24:00,65.4,63.0,29.82,WSW,249,0.0,0.0,92,0.00,,---,0.00,VWS V15.00,2017-05-28 06:24:00,
2017-05-28 02:29:00,65.3,62.9,29.82,South,191,0.0,0.0,92,0.00,,---,0.00,VWS V15.00,2017-05-28 06:29:00,
2017-05-28 02:34:00,65.2,62.5,29.82,South,191,0.0,0.0,91,0.00,,---,0.00,VWS V15.00,2017-05-28 06:34:00,
2017-05-28 02:39:00,65.0,62.6,29.82,South,191,0.0,0.0,92,0.00,,---,0.00,VWS V15.00,2017-05-28 06:39:00,
2017-05-28 02:44:00,64.9,62.5,29.82,South,191,0.0,0.0,92,0.00,,---,0.00,VWS V15.00,2017-05-28 06:44:00,
2017-05-28 02:49:00,64.7,62.3,29.81,South,182,0.0,0.0,92,0.00,,---,0.00,VWS V15.00,2017-05-28 06:49:00,
2017-05-28 02:54:00,64.6,62.2,29.82,South,182,0.0,0.0,92,0.00,,---,0.00,VWS V15.00,2017-05-28 06:54:00,
2017-05-28 02:59:00,64.4,62.0,29.83,South,182,0.0,0.0,92,0.00,,---,0.00,VWS V15.00,2017-05-28 06:59:00,
2017-05-28 03:04:00,64.3,61.9,29.83,South,182,0.0,0.0,92,0.00,,---,0.00,VWS V15.00,2017-05-28 07:04:00,
2017-05-28 03:09:00,64.1,61.7,29.82,South,182,0.0,0.0,92,0.00,,---,0.00,VWS V15.00,2017-05-28 07:09:00,
2017-05-28 03:14:00,63.9,61.8,29.82,South,182,0.0,0.0,93,0.00,,---,0.00,VWS V15.00,2017-05-28 07:14:00,
2017-05-28 03:19:00,63.7,61.6,29.82,South,182,0.0,0.0,93,0.00,,---,0.00,VWS V15.00,2017-05-28 07:19:00,
2017-05-28 03:20:00,63.7,61.6,29.82,South,182,0.0,0.0,93,0.00,,---,0.00,VWS V15.00,2017-05-28 07:20:00,
2017-05-28 03:24:00,63.5,61.4,29.82,South,182,0.0,0.0,93,0.00,,---,0.00,VWS V15.00,2017-05-28 07:24:00,
2017-05-28 03:29:00,63.4,61.3,29.82,South,182,0.0,0.0,93,0.00,,---,0.00,VWS V15.00,2017-05-28 07:29:00,
2017-05-28 03:34:00,63.3,61.5,29.82,South,182,0.0,0.0,94,0.00,,---,0.00,VWS V15.00,2017-05-28 07:34:00,
2017-05-28 03:39:00,63.2,61.5,29.82,South,182,0.0,0.0,94,0.00,,---,0.00,VWS V15.00,2017-05-28 07:39:00,
2017-05-28 03:45:00,63.1,61.0,29.81,South,182,0.0,0.0,93,0.00,,---,0.00,VWS V15.00,2017-05-28 07:45:00,
2017-05-28 03:49:00,63.0,61.0,29.81,South,182,0.0,0.0,93,0.00,,---,0.00,VWS V15.00,2017-05-28 07:49:00,
2017-05-28 03:54:00,62.9,60.8,29.81,South,182,0.0,0.0,93,0.00,,---,0.00,VWS V15.00,2017-05-28 07:54:00,
2017-05-28 03:59:00,62.8,60.8,29.80,South,182,0.0,0.0,93,0.00,,---,0.00,VWS V15.00,2017-05-28 07:59:00,
2017-05-28 04:04:00,62.8,61.0,29.80,South,182,0.0,0.0,94,0.00,,---,0.00,VWS V15.00,2017-05-28 08:04:00,
2017-05-28 04:09:00,62.6,60.8,29.80,South,182,0.0,0.0,94,0.00,,---,0.00,VWS V15.00,2017-05-28 08:09:00,
2017-05-28 04:14:00,62.5,60.8,29.80,South,182,0.0,0.0,94,0.00,,---,0.00,VWS V15.00,2017-05-28 08:14:00,
2017-05-28 04:19:00,62.5,60.8,29.80,South,182,0.0,0.0,94,0.00,,---,0.00,VWS V15.00,2017-05-28 08:19:00,
2017-05-28 04:24:00,62.5,60.8,29.80,South,182,0.0,0.0,94,0.00,,---,0.00,VWS V15.00,2017-05-28 08:24:00,
2017-05-28 04:29:00,62.5,60.8,29.81,South,190,0.0,0.0,94,0.00,,---,0.00,VWS V15.00,2017-05-28 08:29:00,
2017-05-28 04:30:00,62.5,60.8,29.81,South,190,0.0,0.0,94,0.00,,---,0.00,VWS V15.00,2017-05-28 08:30:00,
2017-05-28 04:35:00,62.4,60.3,29.81,South,190,0.0,0.0,93,0.00,,---,0.00,VWS V15.00,2017-05-28 08:35:00,
2017-05-28 04:40:00,62.4,60.3,29.81,South,190,0.0,0.0,93,0.00,,---,0.00,VWS V15.00,2017-05-28 08:40:00,
2017-05-28 04:45:00,62.3,60.6,29.81,SW,218,0.0,0.0,94,0.00,,---,0.00,VWS V15.00,2017-05-28 08:45:00,
2017-05-28 04:50:00,62.3,60.6,29.81,SW,217,0.0,3.0,94,0.00,,---,0.00,VWS V15.00,2017-05-28 08:50:00,
2017-05-28 04:55:00,62.2,60.5,29.81,SW,217,2.0,3.0,94,0.00,,---,0.00,VWS V15.00,2017-05-28 08:55:00,
2017-05-28 05:00:00,62.1,60.4,29.81,SW,217,0.0,3.0,94,0.00,,---,0.00,VWS V15.00,2017-05-28 09:00:00,
2017-05-28 05:05:00,62.1,60.4,29.81,SW,217,1.0,3.0,94,0.00,,---,0.00,VWS V15.00,2017-05-28 09:05:00,
2017-05-28 05:10:00,62.0,60.3,29.81,SW,217,2.0,3.0,94,0.00,,---,0.00,VWS V15.00,2017-05-28 09:10:00,
2017-05-28 05:15:00,61.9,60.2,29.81,SW,217,2.0,3.0,94,0.00,,---,0.00,VWS V15.00,2017-05-28 09:15:00,
2017-05-28 05:20:00,61.9,60.2,29.81,SW,217,1.0,3.0,94,0.00,,---,0.00,VWS V15.00,2017-05-28 09:20:00,
2017-05-28 05:25:00,62.0,60.3,29.81,SSW,194,2.0,3.0,94,0.00,,---,0.00,VWS V15.00,2017-05-28 09:25:00,
2017-05-28 05:30:00,62.0,60.3,29.81,SSW,194,0.0,3.0,94,0.00,,---,0.00,VWS V15.00,2017-05-28 09:30:00,
2017-05-28 05:35:00,61.9,60.2,29.80,SSW,194,1.0,3.0,94,0.00,,---,0.00,VWS V15.00,2017-05-28 09:35:00,
2017-05-28 05:40:00,61.8,60.1,29.80,SSW,194,1.0,2.0,94,0.00,,---,0.00,VWS V15.00,2017-05-28 09:40:00,
2017-05-28 05:45:00,61.8,60.4,29.81,SSW,194,3.0,3.0,95,0.00,,---,0.00,VWS V15.00,2017-05-28 09:45:00,
2017-05-28 05:50:00,61.7,60.3,29.80,SSW,194,1.0,3.0,95,0.00,,---,0.00,VWS V15.00,2017-05-28 09:50:00,
2017-05-28 05:55:00,61.7,60.3,29.80,SSW,194,1.0,3.0,95,0.00,,---,0.00,VWS V15.00,2017-05-28 09:55:00,
2017-05-28 06:00:00,61.6,60.2,29.80,SSW,194,1.0,3.0,95,0.00,,---,0.00,VWS V15.00,2017-05-28 10:00:00,
2017-05-28 06:05:00,61.5,60.1,29.80,SSW,194,0.0,3.0,95,0.00,,---,0.00,VWS V15.00,2017-05-28 10:05:00,
2017-05-28 06:10:00,61.5,60.1,29.80,SSW,194,0.0,2.0,95,0.00,,---,0.00,VWS V15.00,2017-05-28 10:10:00,
2017-05-28 06:15:00,61.5,60.1,29.81,SSW,194,0.0,2.0,95,0.00,,---,0.00,VWS V15.00,2017-05-28 10:15:00,
2017-05-28 06:20:00,61.4,60.0,29.81,SSW,194,0.0,2.0,95,0.00,,---,0.00,VWS V15.00,2017-05-28 10:20:00,
2017-05-28 06:25:00,61.4,60.0,29.81,SSW,196,2.0,2.0,95,0.00,,---,0.00,VWS V15.00,2017-05-28 10:25:00,
2017-05-28 06:30:00,61.4,60.0,29.81,SSW,196,0.0,2.0,95,0.00,,---,0.00,VWS V15.00,2017-05-28 10:30:00,
2017-05-28 06:35:00,61.4,60.0,29.81,SSW,196,0.0,2.0,95,0.00,,---,0.00,VWS V15.00,2017-05-28 10:35:00,
2017-05-28 06:40:00,61.4,60.0,29.81,SSW,196,1.0,2.0,95,0.00,,---,0.00,VWS V15.00,2017-05-28 10:40:00,
2017-05-28 06:45:00,61.5,60.1,29.81,SSW,196,0.0,2.0,95,0.00,,---,0.00,VWS V15.00,2017-05-28 10:45:00,
2017-05-28 06:50:00,61.5,60.1,29.81,SSW,196,0.0,2.0,95,0.00,,---,0.00,VWS V15.00,2017-05-28 10:50:00,
2017-05-28 06:55:00,61.6,60.2,29.81,SSW,196,0.0,2.0,95,0.00,,---,0.00,VWS V15.00,2017-05-28 10:55:00,
2017-05-28 07:00:00,61.7,60.5,29.80,SSW,196,0.0,2.0,96,0.00,,---,0.00,VWS V15.00,2017-05-28 11:00:00,
2017-05-28 07:05:00,61.7,60.3,29.80,SSW,196,0.0,2.0,95,0.00,,---,0.00,VWS V15.00,2017-05-28 11:05:00,
2017-05-28 07:10:00,61.8,60.4,29.80,SSW,196,1.0,2.0,95,0.00,,---,0.00,VWS V15.00,2017-05-28 11:10:00,
2017-05-28 07:15:00,61.9,60.5,29.79,SSW,196,0.0,2.0,95,0.00,,---,0.00,VWS V15.00,2017-05-28 11:15:00,
2017-05-28 07:20:00,62.0,60.6,29.79,SSW,196,0.0,2.0,95,0.00,,---,0.00,VWS V15.00,2017-05-28 11:20:00,
2017-05-28 07:25:00,62.2,60.8,29.79,South,188,1.0,3.0,95,0.00,,---,0.00,VWS V15.00,2017-05-28 11:25:00,
2017-05-28 07:30:00,62.3,60.8,29.79,SE,140,2.0,4.0,95,0.00,,---,0.00,VWS V15.00,2017-05-28 11:30:00,
2017-05-28 07:35:00,62.5,61.0,29.79,SE,142,2.0,4.0,95,0.00,,---,0.00,VWS V15.00,2017-05-28 11:35:00,
2017-05-28 07:40:00,62.7,61.0,29.79,SE,142,2.0,2.0,94,0.00,,---,0.00,VWS V15.00,2017-05-28 11:40:00,
2017-05-28 07:45:00,62.8,61.0,29.79,SSE,150,3.0,3.0,94,0.00,,---,0.00,VWS V15.00,2017-05-28 11:45:00,
2017-05-28 07:50:00,63.0,61.0,29.79,SE,143,2.0,3.0,93,0.00,,---,0.00,VWS V15.00,2017-05-28 11:50:00,
2017-05-28 07:55:00,63.3,61.5,29.80,SSE,161,2.0,4.0,94,0.00,,---,0.00,VWS V15.00,2017-05-28 11:55:00,
2017-05-28 08:00:00,63.5,61.4,29.80,SW,224,2.0,6.0,93,0.00,,---,0.00,VWS V15.00,2017-05-28 12:00:00,
2017-05-28 08:05:00,63.7,61.6,29.80,WSW,238,2.0,6.0,93,0.00,,---,0.00,VWS V15.00,2017-05-28 12:05:00,
2017-05-28 08:10:00,63.8,61.4,29.80,South,178,1.0,5.0,92,0.00,,---,0.00,VWS V15.00,2017-05-28 12:10:00,
2017-05-28 08:15:00,63.7,61.3,29.80,SE,130,1.0,5.0,92,0.00,,---,0.00,VWS V15.00,2017-05-28 12:15:00,
2017-05-28 08:20:00,63.8,61.7,29.80,SW,223,2.0,5.0,93,0.00,,---,0.00,VWS V15.00,2017-05-28 12:20:00,
2017-05-28 08:25:00,63.9,61.8,29.81,SW,222,1.0,5.0,93,0.00,,---,0.00,VWS V15.00,2017-05-28 12:25:00,
2017-05-28 08:35:00,64.3,61.9,29.80,South,183,1.0,5.0,92,0.00,,---,0.00,VWS V15.00,2017-05-28 12:35:00,
2017-05-28 08:40:00,64.6,62.5,29.81,SSW,197,4.0,5.0,93,0.00,,---,0.00,VWS V15.00,2017-05-28 12:40:00,
2017-05-28 08:45:00,64.8,62.1,29.81,SSW,204,1.0,6.0,91,0.00,,---,0.00,VWS V15.00,2017-05-28 12:45:00,
2017-05-28 08:50:00,64.7,62.0,29.81,SSE,168,2.0,6.0,91,0.00,,---,0.00,VWS V15.00,2017-05-28 12:50:00,
2017-05-28 08:55:00,64.8,62.1,29.82,SSW,209,1.0,6.0,91,0.00,,---,0.00,VWS V15.00,2017-05-28 12:55:00,
2017-05-28 09:00:00,64.9,62.2,29.82,SW,223,4.0,6.0,91,0.00,,---,0.00,VWS V15.00,2017-05-28 13:00:00,
2017-05-28 09:05:00,64.8,62.1,29.84,SW,227,2.0,6.0,91,0.00,,---,0.00,VWS V15.00,2017-05-28 13:05:00,
2017-05-28 09:10:00,64.9,62.2,29.83,SSW,204,1.0,4.0,91,0.00,,---,0.00,VWS V15.00,2017-05-28 13:10:00,
2017-05-28 09:15:00,64.9,62.2,29.83,SSW,211,1.0,5.0,91,0.00,,---,0.00,VWS V15.00,2017-05-28 13:15:00,
2017-05-28 09:20:00,65.0,62.3,29.83,SW,217,1.0,5.0,91,0.00,,---,0.00,VWS V15.00,2017-05-28 13:20:00,
2017-05-28 09:25:00,65.1,62.4,29.84,SW,217,2.0,5.0,91,0.00,,---,0.00,VWS V15.00,2017-05-28 13:25:00,
2017-05-28 09:30:00,65.2,62.5,29.84,WSW,248,3.0,5.0,91,0.00,,---,0.00,VWS V15.00,2017-05-28 13:30:00,
2017-05-28 09:35:00,65.4,62.7,29.84,WNW,299,1.0,5.0,91,0.00,,---,0.00,VWS V15.00,2017-05-28 13:35:00,
2017-05-28 09:40:00,65.8,63.1,29.84,South,188,0.0,3.0,91,0.00,,---,0.00,VWS V15.00,2017-05-28 13:40:00,
2017-05-28 09:45:00,66.2,63.2,29.84,WSW,243,1.0,4.0,90,0.00,,---,0.00,VWS V15.00,2017-05-28 13:45:00,
2017-05-28 09:50:00,66.9,63.6,29.83,SW,230,2.0,5.0,89,0.00,,---,0.00,VWS V15.00,2017-05-28 13:50:00,
2017-05-28 09:55:00,67.6,64.2,29.83,SSW,194,1.0,5.0,89,0.00,,---,0.00,VWS V15.00,2017-05-28 13:55:00,
2017-05-28 10:00:00,68.0,63.7,29.83,West,266,3.0,6.0,86,0.00,,---,0.00,VWS V15.00,2017-05-28 14:00:00,
2017-05-28 10:05:00,68.2,63.5,29.83,SSW,207,5.0,6.0,85,0.00,,---,0.00,VWS V15.00,2017-05-28 14:05:00,
2017-05-28 10:10:00,68.2,63.9,29.83,WSW,255,4.0,4.0,86,0.00,,---,0.00,VWS V15.00,2017-05-28 14:10:00,
2017-05-28 10:15:00,68.5,63.5,29.83,South,174,2.0,5.0,84,0.00,,---,0.00,VWS V15.00,2017-05-28 14:15:00,
2017-05-28 10:20:00,68.8,63.4,29.82,SW,223,3.0,7.0,83,0.00,,---,0.00,VWS V15.00,2017-05-28 14:20:00,
2017-05-28 10:25:00,68.9,63.9,29.82,SE,146,3.0,7.0,84,0.00,,---,0.00,VWS V15.00,2017-05-28 14:25:00,
2017-05-28 10:30:00,69.2,63.8,29.82,WSW,238,3.0,7.0,83,0.00,,---,0.00,VWS V15.00,2017-05-28 14:30:00,
2017-05-28 10:35:00,69.2,64.5,29.81,SW,225,3.0,7.0,85,0.00,,---,0.00,VWS V15.00,2017-05-28 14:35:00,
2017-05-28 10:40:00,69.9,64.2,29.81,ESE,107,7.0,8.0,82,0.00,,---,0.00,VWS V15.00,2017-05-28 14:40:00,
2017-05-28 10:45:00,70.6,64.5,29.81,South,186,3.0,8.0,81,0.00,,---,0.00,VWS V15.00,2017-05-28 14:45:00,
2017-05-28 10:50:00,70.6,64.5,29.81,SSW,213,1.0,8.0,81,0.00,,---,0.00,VWS V15.00,2017-05-28 14:50:00,
2017-05-28 10:55:00,70.7,64.6,29.81,SW,229,1.0,8.0,81,0.00,,---,0.00,VWS V15.00,2017-05-28 14:55:00,
2017-05-28 11:00:00,70.8,65.0,29.81,South,180,2.0,8.0,82,0.00,,---,0.00,VWS V15.00,2017-05-28 15:00:00,
2017-05-28 11:05:00,70.9,64.4,29.81,South,184,2.0,8.0,80,0.00,,---,0.00,VWS V15.00,2017-05-28 15:05:00,
2017-05-28 11:10:00,71.0,64.9,29.81,ENE,78,2.0,5.0,81,0.00,,---,0.00,VWS V15.00,2017-05-28 15:10:00,
2017-05-28 11:15:00,70.9,64.4,29.81,SSE,151,0.0,5.0,80,0.00,,---,0.00,VWS V15.00,2017-05-28 15:15:00,
2017-05-28 11:16:00,70.8,64.3,29.81,SSE,151,1.0,5.0,80,0.00,,---,0.00,VWS V15.00,2017-05-28 15:16:00,
2017-05-28 11:21:00,70.8,64.7,29.81,WSW,253,5.0,7.0,81,0.00,,---,0.00,VWS V15.00,2017-05-28 15:21:00,
2017-05-28 11:26:00,70.8,64.3,29.81,South,175,2.0,7.0,80,0.00,,---,0.00,VWS V15.00,2017-05-28 15:26:00,
2017-05-28 11:31:00,71.6,64.4,29.81,SSE,159,2.0,7.0,78,0.00,,---,0.00,VWS V15.00,2017-05-28 15:31:00,
2017-05-28 11:36:00,72.0,64.4,29.81,WSW,246,4.0,7.0,77,0.00,,---,0.00,VWS V15.00,2017-05-28 15:36:00,
2017-05-28 11:41:00,72.1,64.9,29.81,SW,218,2.0,7.0,78,0.00,,---,0.00,VWS V15.00,2017-05-28 15:41:00,
2017-05-28 11:46:00,72.4,66.6,29.81,SE,127,3.0,7.0,82,0.00,,---,0.00,VWS V15.00,2017-05-28 15:46:00,
2017-05-28 11:51:00,72.8,64.8,29.81,SSW,207,5.0,9.0,76,0.00,,---,0.00,VWS V15.00,2017-05-28 15:51:00,
2017-05-28 11:56:00,72.4,65.2,29.81,SSW,211,3.0,9.0,78,0.00,,---,0.00,VWS V15.00,2017-05-28 15:56:00,
2017-05-28 12:01:00,72.0,64.4,29.81,WSW,253,5.0,9.0,77,0.00,,---,0.00,VWS V15.00,2017-05-28 16:01:00,
2017-05-28 12:06:00,71.7,64.5,29.81,WSW,247,5.0,5.0,78,0.00,,---,0.00,VWS V15.00,2017-05-28 16:06:00,
2017-05-28 12:11:00,71.8,64.6,29.81,East,90,3.0,5.0,78,0.00,,---,0.00,VWS V15.00,2017-05-28 16:11:00,
2017-05-28 12:16:00,71.7,64.5,29.81,South,190,3.0,5.0,78,0.00,,---,0.00,VWS V15.00,2017-05-28 16:16:00,
2017-05-28 12:21:00,71.8,64.9,29.81,WSW,257,3.0,6.0,79,0.00,,---,0.00,VWS V15.00,2017-05-28 16:21:00,
2017-05-28 12:26:00,71.8,64.9,29.81,SSW,209,3.0,6.0,79,0.00,,---,0.00,VWS V15.00,2017-05-28 16:26:00,
2017-05-28 12:31:00,71.9,64.7,29.81,SE,135,1.0,6.0,78,0.00,,---,0.00,VWS V15.00,2017-05-28 16:31:00,
2017-05-28 12:36:00,72.5,65.3,29.81,South,189,1.0,6.0,78,0.00,,---,0.00,VWS V15.00,2017-05-28 16:36:00,
2017-05-28 12:41:00,72.9,66.0,29.81,South,172,2.0,6.0,79,0.00,,---,0.00,VWS V15.00,2017-05-28 16:41:00,
2017-05-28 12:46:00,73.3,65.3,29.81,South,182,1.0,6.0,76,0.00,,---,0.00,VWS V15.00,2017-05-28 16:46:00,
2017-05-28 12:51:00,73.5,65.9,29.81,South,175,3.0,6.0,77,0.00,,---,0.00,VWS V15.00,2017-05-28 16:51:00,
2017-05-28 12:56:00,73.4,65.4,29.81,SW,219,3.0,6.0,76,0.00,,---,0.00,VWS V15.00,2017-05-28 16:56:00,
2017-05-28 13:01:00,73.2,64.4,29.81,WNW,283,2.0,10.0,74,0.00,,---,0.00,VWS V15.00,2017-05-28 17:01:00,
2017-05-28 13:06:00,72.9,64.9,29.82,West,259,2.0,3.0,76,0.00,,---,0.00,VWS V15.00,2017-05-28 17:06:00,
2017-05-28 13:11:00,72.5,64.1,29.82,WSW,240,2.0,8.0,75,0.00,,---,0.00,VWS V15.00,2017-05-28 17:11:00,
2017-05-28 13:16:00,72.5,64.5,29.82,SSW,198,3.0,8.0,76,0.00,,---,0.00,VWS V15.00,2017-05-28 17:16:00,
2017-05-28 13:21:00,72.8,65.2,29.82,West,265,3.0,8.0,77,0.00,,---,0.00,VWS V15.00,2017-05-28 17:21:00,
2017-05-28 13:26:00,73.0,64.6,29.81,SSE,165,4.0,8.0,75,0.00,,---,0.00,VWS V15.00,2017-05-28 17:26:00,
2017-05-28 13:31:00,72.8,64.4,29.81,WSW,250,4.0,8.0,75,0.00,,---,0.00,VWS V15.00,2017-05-28 17:31:00,
2017-05-28 13:36:00,73.0,65.0,29.81,SW,225,1.0,2.0,76,0.00,,---,0.00,VWS V15.00,2017-05-28 17:36:00,
2017-05-28 13:41:00,73.6,65.9,29.81,West,263,3.0,4.0,77,0.00,,---,0.00,VWS V15.00,2017-05-28 17:41:00,
2017-05-28 13:46:00,74.1,65.7,29.81,SSW,194,2.0,8.0,75,0.00,,---,0.00,VWS V15.00,2017-05-28 17:46:00,
2017-05-28 13:51:00,74.7,66.6,29.81,WSW,242,1.0,8.0,76,0.00,,---,0.00,VWS V15.00,2017-05-28 17:51:00,
2017-05-28 13:56:00,74.8,65.2,29.81,SSW,202,4.0,8.0,72,0.00,,---,0.00,VWS V15.00,2017-05-28 17:56:00,
2017-05-28 14:01:00,74.3,64.3,29.81,SW,230,4.0,10.0,71,0.00,,---,0.00,VWS V15.00,2017-05-28 18:01:00,
2017-05-28 14:06:00,73.5,64.3,29.81,WSW,243,2.0,10.0,73,0.00,,---,0.00,VWS V15.00,2017-05-28 18:06:00,
2017-05-28 14:11:00,73.9,65.1,29.81,South,186,3.0,5.0,74,0.00,,---,0.00,VWS V15.00,2017-05-28 18:11:00,
2017-05-28 14:16:00,74.3,65.1,29.81,West,261,2.0,6.0,73,0.00,,---,0.00,VWS V15.00,2017-05-28 18:16:00,
2017-05-28 14:21:00,74.5,65.3,29.80,West,263,4.0,7.0,73,0.00,,---,0.00,VWS V15.00,2017-05-28 18:21:00,
2017-05-28 14:26:00,74.7,66.3,29.80,West,265,7.0,7.0,75,0.00,,---,0.00,VWS V15.00,2017-05-28 18:26:00,
2017-05-28 14:31:00,75.0,66.2,29.81,NW,307,3.0,7.0,74,0.00,,---,0.00,VWS V15.00,2017-05-28 18:31:00,
2017-05-28 14:36:00,75.1,65.1,29.80,West,279,3.0,3.0,71,0.00,,---,0.00,VWS V15.00,2017-05-28 18:36:00,
2017-05-28 14:41:00,74.6,65.4,29.81,WSW,257,4.0,8.0,73,0.00,,---,0.00,VWS V15.00,2017-05-28 18:41:00,
2017-05-28 14:46:00,74.2,64.6,29.81,SW,229,4.0,8.0,72,0.00,,---,0.00,VWS V15.00,2017-05-28 18:46:00,
2017-05-28 14:51:00,73.6,64.4,29.81,SSW,202,2.0,8.0,73,0.00,,---,0.00,VWS V15.00,2017-05-28 18:51:00,
2017-05-28 14:56:00,73.4,64.2,29.81,WSW,242,2.0,8.0,73,0.00,,---,0.00,VWS V15.00,2017-05-28 18:56:00,
2017-05-28 15:01:00,73.2,65.2,29.81,West,263,2.0,8.0,76,0.00,,---,0.00,VWS V15.00,2017-05-28 19:01:00,
2017-05-28 15:06:00,73.3,64.9,29.81,WSW,248,2.0,8.0,75,0.00,,---,0.00,VWS V15.00,2017-05-28 19:06:00,
2017-05-28 15:11:00,73.5,65.5,29.81,SSW,199,1.0,5.0,76,0.00,,---,0.00,VWS V15.00,2017-05-28 19:11:00,
2017-05-28 15:16:00,74.0,66.0,29.81,WSW,243,4.0,7.0,76,0.00,,---,0.00,VWS V15.00,2017-05-28 19:16:00,
2017-05-28 15:21:00,74.1,64.5,29.81,WSW,249,3.0,11.0,72,0.00,,---,0.00,VWS V15.00,2017-05-28 19:21:00,
2017-05-28 15:26:00,73.7,64.1,29.81,SW,222,3.0,11.0,72,0.00,,---,0.00,VWS V15.00,2017-05-28 19:26:00,
2017-05-28 15:31:00,73.6,64.8,29.82,West,263,4.0,11.0,74,0.00,,---,0.00,VWS V15.00,2017-05-28 19:31:00,
2017-05-28 15:36:00,73.7,65.7,29.82,SW,234,2.0,2.0,76,0.00,,---,0.00,VWS V15.00,2017-05-28 19:36:00,
2017-05-28 15:41:00,73.8,64.6,29.82,SW,216,2.0,8.0,73,0.00,,---,0.00,VWS V15.00,2017-05-28 19:41:00,
2017-05-28 15:46:00,74.4,65.6,29.82,WSW,258,2.0,9.0,74,0.00,,---,0.00,VWS V15.00,2017-05-28 19:46:00,
2017-05-28 15:51:00,74.7,65.1,29.82,SW,219,3.0,9.0,72,0.00,,---,0.00,VWS V15.00,2017-05-28 19:51:00,
2017-05-28 15:56:00,74.0,64.4,29.82,SSW,192,3.0,9.0,72,0.00,,---,0.00,VWS V15.00,2017-05-28 19:56:00,
2017-05-28 16:01:00,73.4,63.8,29.82,SW,231,1.0,9.0,72,0.00,,---,0.00,VWS V15.00,2017-05-28 20:01:00,
2017-05-28 16:06:00,73.2,64.4,29.82,SSW,199,1.0,9.0,74,0.00,,---,0.00,VWS V15.00,2017-05-28 20:06:00,
2017-05-28 16:11:00,73.3,64.1,29.82,SSW,209,1.0,7.0,73,0.00,,---,0.00,VWS V15.00,2017-05-28 20:11:00,
2017-05-28 16:16:00,73.3,64.1,29.81,SW,217,2.0,7.0,73,0.00,,---,0.00,VWS V15.00,2017-05-28 20:16:00,
2017-05-28 16:21:00,73.2,64.4,29.81,SSW,193,2.0,7.0,74,0.00,,---,0.00,VWS V15.00,2017-05-28 20:21:00,
2017-05-28 16:26:00,73.0,63.8,29.81,WSW,251,2.0,7.0,73,0.00,,---,0.00,VWS V15.00,2017-05-28 20:26:00,
2017-05-28 16:31:00,72.8,64.0,29.82,SW,221,2.0,7.0,74,0.00,,---,0.00,VWS V15.00,2017-05-28 20:31:00,
2017-05-28 16:36:00,72.6,64.2,29.81,SW,227,5.0,7.0,75,0.00,,---,0.00,VWS V15.00,2017-05-28 20:36:00,
2017-05-28 16:41:00,72.2,63.5,29.81,SSW,194,4.0,7.0,74,0.00,,---,0.00,VWS V15.00,2017-05-28 20:41:00,
2017-05-28 16:46:00,72.1,64.1,29.81,SW,226,2.0,7.0,76,0.00,,---,0.00,VWS V15.00,2017-05-28 20:46:00,
2017-05-28 16:51:00,72.1,64.1,29.81,SW,225,0.0,7.0,76,0.00,,---,0.00,VWS V15.00,2017-05-28 20:51:00,
2017-05-28 16:56:00,72.1,64.9,29.81,SW,219,1.0,7.0,78,0.00,,---,0.00,VWS V15.00,2017-05-28 20:56:00,
2017-05-28 17:01:00,72.0,64.4,29.81,SW,232,2.0,7.0,77,0.00,,---,0.00,VWS V15.00,2017-05-28 21:01:00,
2017-05-28 17:06:00,71.9,64.3,29.81,SSE,157,2.0,7.0,77,0.00,,---,0.00,VWS V15.00,2017-05-28 21:06:00,
2017-05-28 17:11:00,71.8,63.8,29.81,SSW,199,1.0,3.0,76,0.00,,---,0.00,VWS V15.00,2017-05-28 21:11:00,
2017-05-28 17:16:00,71.7,64.1,29.81,SW,234,4.0,4.0,77,0.00,,---,0.00,VWS V15.00,2017-05-28 21:16:00,
2017-05-28 17:21:00,71.5,64.3,29.81,WSW,244,2.0,4.0,78,0.00,,---,0.00,VWS V15.00,2017-05-28 21:21:00,
2017-05-28 17:26:00,71.4,64.2,29.81,SSW,211,1.0,4.0,78,0.00,,---,0.00,VWS V15.00,2017-05-28 21:26:00,
2017-05-28 17:31:00,71.4,64.2,29.82,WSW,252,2.0,4.0,78,0.00,,---,0.00,VWS V15.00,2017-05-28 21:31:00,
2017-05-28 17:36:00,71.5,64.7,29.82,West,263,1.0,4.0,79,0.00,,---,0.00,VWS V15.00,2017-05-28 21:36:00,
2017-05-28 17:41:00,71.6,64.4,29.82,WSW,245,4.0,4.0,78,0.00,,---,0.00,VWS V15.00,2017-05-28 21:41:00,
2017-05-28 17:46:00,71.6,64.0,29.82,SSW,200,2.0,5.0,77,0.00,,---,0.00,VWS V15.00,2017-05-28 21:46:00,
2017-05-28 17:51:00,71.8,64.6,29.82,WSW,244,4.0,6.0,78,0.00,,---,0.00,VWS V15.00,2017-05-28 21:51:00,
2017-05-28 17:56:00,71.9,63.9,29.82,WSW,257,2.0,7.0,76,0.00,,---,0.00,VWS V15.00,2017-05-28 21:56:00,
2017-05-28 18:01:00,72.1,64.1,29.82,WSW,240,1.0,7.0,76,0.00,,---,0.00,VWS V15.00,2017-05-28 22:01:00,
2017-05-28 18:06:00,72.4,64.0,29.82,WSW,238,1.0,8.0,75,0.00,,---,0.00,VWS V15.00,2017-05-28 22:06:00,
2017-05-28 18:11:00,72.4,64.0,29.82,SW,233,3.0,10.0,75,0.00,,---,0.00,VWS V15.00,2017-05-28 22:11:00,
2017-05-28 18:16:00,72.5,63.8,29.82,SW,228,4.0,10.0,74,0.00,,---,0.00,VWS V15.00,2017-05-28 22:16:00,
2017-05-28 18:21:00,72.4,64.4,29.82,SW,218,3.0,10.0,76,0.00,,---,0.00,VWS V15.00,2017-05-28 22:21:00,
2017-05-28 18:26:00,72.1,64.1,29.82,SSW,198,4.0,10.0,76,0.00,,---,0.00,VWS V15.00,2017-05-28 22:26:00,
2017-05-28 18:31:00,71.8,63.8,29.81,WSW,245,3.0,10.0,76,0.00,,---,0.00,VWS V15.00,2017-05-28 22:31:00,
2017-05-28 18:36:00,71.7,63.7,29.81,SW,225,2.0,10.0,76,0.00,,---,0.00,VWS V15.00,2017-05-28 22:36:00,
2017-05-28 18:41:00,71.7,63.7,29.81,SW,215,4.0,4.0,76,0.00,,---,0.00,VWS V15.00,2017-05-28 22:41:00,
2017-05-28 18:46:00,71.6,64.0,29.81,West,264,4.0,4.0,77,0.00,,---,0.00,VWS V15.00,2017-05-28 22:46:00,
2017-05-28 18:51:00,71.5,64.3,29.81,WSW,246,1.0,4.0,78,0.00,,---,0.00,VWS V15.00,2017-05-28 22:51:00,
2017-05-28 18:56:00,71.5,63.9,29.81,SSW,208,3.0,4.0,77,0.00,,---,0.00,VWS V15.00,2017-05-28 22:56:00,
2017-05-28 19:01:00,71.6,64.0,29.80,SW,221,1.0,5.0,77,0.00,,---,0.00,VWS V15.00,2017-05-28 23:01:00,
2017-05-28 19:06:00,71.6,64.0,29.80,SSW,213,1.0,7.0,77,0.00,,---,0.00,VWS V15.00,2017-05-28 23:06:00,
2017-05-28 19:11:00,71.7,64.5,29.80,SSW,213,3.0,7.0,78,0.00,,---,0.00,VWS V15.00,2017-05-28 23:11:00,
2017-05-28 19:16:00,71.8,64.2,29.80,SSW,192,1.0,7.0,77,0.00,,---,0.00,VWS V15.00,2017-05-28 23:16:00,
2017-05-28 19:21:00,71.9,64.3,29.81,West,262,3.0,7.0,77,0.00,,---,0.00,VWS V15.00,2017-05-28 23:21:00,
2017-05-28 19:26:00,71.7,64.1,29.81,West,259,2.0,7.0,77,0.00,,---,0.00,VWS V15.00,2017-05-28 23:26:00,
2017-05-28 19:31:00,71.4,63.8,29.81,SW,214,1.0,7.0,77,0.00,,---,0.00,VWS V15.00,2017-05-28 23:31:00,
2017-05-28 19:36:00,71.0,64.2,29.81,SW,234,1.0,7.0,79,0.00,,---,0.00,VWS V15.00,2017-05-28 23:36:00,
2017-05-28 19:41:00,70.8,64.0,29.82,SW,229,1.0,3.0,79,0.00,,---,0.00,VWS V15.00,2017-05-28 23:41:00,
2017-05-28 19:46:00,70.8,64.0,29.82,SW,229,0.0,3.0,79,0.00,,---,0.00,VWS V15.00,2017-05-28 23:46:00,
2017-05-28 19:51:00,70.6,64.1,29.82,West,263,1.0,3.0,80,0.00,,---,0.00,VWS V15.00,2017-05-28 23:51:00,
2017-05-28 19:56:00,70.6,64.1,29.82,SSW,196,2.0,4.0,80,0.00,,---,0.00,VWS V15.00,2017-05-28 23:56:00,
2017-05-28 20:01:00,70.5,63.7,29.82,SW,231,3.0,4.0,79,0.00,,---,0.00,VWS V15.00,2017-05-29 00:01:00,
2017-05-28 20:06:00,70.3,63.8,29.82,SSW,200,3.0,5.0,80,0.00,,---,0.00,VWS V15.00,2017-05-29 00:06:00,
2017-05-28 20:11:00,70.1,63.3,29.83,WSW,238,1.0,5.0,79,0.00,,---,0.00,VWS V15.00,2017-05-29 00:11:00,
2017-05-28 20:16:00,69.9,63.5,29.82,SW,215,1.0,5.0,80,0.00,,---,0.00,VWS V15.00,2017-05-29 00:16:00,
2017-05-28 20:21:00,69.8,63.4,29.83,WSW,248,5.0,5.0,80,0.00,,---,0.00,VWS V15.00,2017-05-29 00:21:00,
2017-05-28 20:26:00,69.7,63.3,29.83,WSW,244,3.0,5.0,80,0.00,,---,0.00,VWS V15.00,2017-05-29 00:26:00,
2017-05-28 20:31:00,69.6,63.2,29.83,WSW,247,2.0,5.0,80,0.00,,---,0.00,VWS V15.00,2017-05-29 00:31:00,
2017-05-28 20:36:00,69.5,63.1,29.83,WSW,238,2.0,2.0,80,0.00,,---,0.00,VWS V15.00,2017-05-29 00:36:00,
2017-05-28 20:41:00,69.4,63.3,29.83,WSW,238,1.0,2.0,81,0.00,,---,0.00,VWS V15.00,2017-05-29 00:41:00,
2017-05-28 20:46:00,69.2,63.1,29.84,WSW,238,2.0,2.0,81,0.00,,---,0.00,VWS V15.00,2017-05-29 00:46:00,
2017-05-28 20:51:00,69.0,63.3,29.84,WSW,242,1.0,2.0,82,0.00,,---,0.00,VWS V15.00,2017-05-29 00:51:00,
2017-05-28 20:56:00,68.9,63.2,29.84,WSW,242,1.0,2.0,82,0.00,,---,0.00,VWS V15.00,2017-05-29 00:56:00,
2017-05-28 21:01:00,68.8,63.4,29.84,WSW,242,0.0,2.0,83,0.00,,---,0.00,VWS V15.00,2017-05-29 01:01:00,
2017-05-28 21:06:00,68.7,63.3,29.84,WSW,242,0.0,0.0,83,0.00,,---,0.00,VWS V15.00,2017-05-29 01:06:00,
2017-05-28 21:11:00,68.5,63.5,29.84,WSW,242,0.0,0.0,84,0.00,,---,0.00,VWS V15.00,2017-05-29 01:11:00,
2017-05-28 21:16:00,68.4,63.7,29.84,WSW,242,0.0,0.0,85,0.00,,---,0.00,VWS V15.00,2017-05-29 01:16:00,